[[{"header":{"parameterUnit":"m.s-1","parameterCategory":1,"la1":30.2991,"la2":30.254,"lo1":-89.0895,"lo2":-89.0444,"dy":0.0017,"dx":0.0017,"nx":28,"ny":28,"refTime":"2025-05-31T21:00:00:Z","depth":0,"parameterNumber":2,"parameterNumberName":"U-component_of_WINDS"},"data":[0,0,0,0,0,0,0,0,0,0,0,0,0,0,0,0,0,0,0,0,0,0,0,0,0,0,0,0,0,0,0,0,0,0,0,0,0,0,0,0,0,0,0,0,0,0,0,0,0,0,0,0,0,0,0,0,0,0,-0.2369,-0.2369,0,-0.2373,-0.2373,-0.2373,-0.2391,-0.2391,-0.2392,-0.2392,-0.2395,-0.2395,-0.2394,0,0,0,0,0,0,0,0,0,0,0,0,0,-0.2379,-0.2378,-0.2369,-0.2369,-0.2369,-0.2373,-0.2373,-0.2373,-0.2391,-0.2391,-0.2392,-0.2392,-0.2395,-0.2395,-0.2394,0,0,0,0,0,0,0,0,0,0,0,0,0,-0.2377,-0.2378,-0.2369,-0.2379,-0.238,-0.2373,-0.2373,-0.2373,-0.2391,-0.2391,-0.2392,-0.2393,-0.2395,-0.2395,-0.2394,-0.2378,0,0,-0.2393,-0.2393,0,0,0,0,0,0,0,0,-0.2377,-0.2377,-0.2377,-0.2378,-0.2379,-0.2382,-0.2377,-0.2375,-0.2391,-0.2387,-0.2392,-0.2393,-0.239,-0.239,-0.2389,-0.2378,-0.2378,-0.2393,-0.2393,-0.2392,-0.2392,0,0,0,0,0,0,0,-0.2378,-0.2377,-0.2371,-0.2377,-0.2378,-0.2383,-0.2384,-0.2377,-0.2385,-0.2387,-0.2388,-0.2388,-0.2391,-0.239,-0.239,-0.2379,-0.2393,-0.2392,-0.2392,-0.2392,-0.2355,-0.2355,0,0,0,0,0,0,-0.2376,-0.2377,-0.237,-0.2371,-0.238,-0.2382,-0.2383,-0.238,-0.2385,-0.2386,-0.2388,-0.2389,-0.239,-0.239,-0.239,-0.2372,-0.2392,-0.2392,-0.2392,-0.2356,-0.2355,-0.2354,0,0,0,0,0,0,-0.2376,-0.2376,-0.237,-0.2374,-0.2374,-0.2381,-0.2379,-0.238,-0.2379,-0.2386,-0.2387,-0.2385,-0.2391,-0.239,-0.2381,-0.2372,-0.2392,-0.2391,-0.2357,-0.2356,-0.2355,-0.2335,0,0,0,0,0,0,-0.2377,-0.2375,-0.2369,-0.2374,-0.2374,-0.2362,-0.2378,-0.238,-0.2378,-0.238,-0.2384,-0.2385,-0.2391,-0.2382,-0.2381,-0.2372,-0.2391,-0.2358,-0.2356,-0.2355,-0.2337,-0.2334,-0.2331,0,0,0,0,0,-0.2377,-0.2363,-0.2369,-0.2368,-0.2366,-0.2361,-0.2361,-0.2369,-0.2378,-0.2372,-0.2376,-0.2385,-0.2373,-0.2381,-0.238,-0.237,-0.2358,-0.2357,-0.2355,-0.2338,-0.2334,-0.2331,0,0,0,0,0,0,-0.2357,-0.2364,-0.237,-0.2358,-0.2359,-0.2364,-0.2357,-0.2365,-0.2363,-0.2365,-0.2375,-0.2375,-0.2365,-0.2366,-0.2375,-0.2355,-0.2367,-0.2365,-0.2355,-0.2351,-0.2348,-0.2348,-0.239,0,0,0,0,0,-0.2351,-0.2347,-0.2353,-0.2342,-0.2342,-0.2349,-0.2347,-0.2353,-0.2355,-0.2355,-0.2359,-0.2359,-0.2356,-0.2354,-0.2351,-0.2337,-0.2338,-0.233,-0.2327,-0.2325,-0.2323,-0.2317,-0.2314,-0.2349,-0.2349,-0.2349,0,0,-0.2339,-0.2343,-0.2339,-0.2338,-0.2339,-0.2334,-0.2349,-0.2343,-0.234,-0.2354,-0.2346,-0.2348,-0.235,-0.2339,-0.2334,-0.234,-0.2314,-0.2323,-0.2321,-0.2321,-0.2315,-0.2312,-0.2309,-0.2348,-0.2349,-0.2349,0,0,-0.2315,-0.2317,-0.2308,-0.2309,-0.2311,-0.2317,-0.2314,-0.2319,-0.2321,-0.2313,-0.2324,-0.232,-0.2314,-0.2315,-0.2314,-0.2291,-0.2299,-0.229,-0.2275,-0.2269,-0.2266,-0.2263,-0.2256,-0.2253,-0.2288,-0.2288,-0.2288,0,-0.23,-0.2293,-0.2302,-0.2296,-0.2295,-0.2308,-0.2299,-0.23,-0.2301,-0.23,-0.2307,-0.23,-0.2302,-0.2292,-0.2286,-0.2285,-0.2283,-0.229,-0.2266,-0.2263,-0.2261,-0.2254,-0.2251,-0.2287,-0.2287,-0.2287,-0.2287,0,-0.2275,-0.227,-0.2263,-0.2264,-0.2262,-0.2255,-0.2263,-0.226,-0.2266,-0.2271,-0.2263,-0.2265,-0.2264,-0.2262,-0.2267,-0.2252,-0.2256,-0.2264,-0.2276,-0.2256,-0.225,-0.2247,-0.2285,-0.2286,-0.2286,-0.2286,0,0,-0.2238,-0.2245,-0.2242,-0.2243,-0.2247,-0.2243,-0.2236,-0.2235,-0.2233,-0.2233,-0.2228,-0.2223,-0.2231,-0.223,-0.2236,-0.2231,-0.2213,-0.224,-0.224,-0.2235,-0.2197,-0.2191,-0.2188,-0.2218,-0.2218,-0.2218,-0.2197,0,-0.2216,-0.2205,-0.2213,-0.2201,-0.2197,-0.2209,-0.2203,-0.2205,-0.2209,-0.2206,-0.221,-0.2207,-0.2217,-0.2217,-0.2212,-0.2216,-0.2206,-0.2218,-0.2214,-0.2214,-0.2214,-0.2184,-0.2178,-0.2158,-0.2194,-0.2194,-0.2194,0,-0.2188,-0.2188,-0.2175,-0.218,-0.2179,-0.2173,-0.2173,-0.217,-0.2173,-0.2176,-0.2176,-0.2184,-0.2177,-0.2189,-0.2181,-0.2189,-0.2188,-0.219,-0.2189,-0.219,-0.2203,-0.2184,-0.2152,-0.2149,-0.2189,-0.219,-0.219,0,-0.2164,-0.216,-0.2152,-0.2153,-0.2158,-0.2154,-0.2156,-0.2159,-0.2158,-0.2158,-0.2157,-0.2156,-0.2156,-0.2155,-0.2162,-0.217,-0.2153,-0.2165,-0.2156,-0.2156,-0.2152,-0.2152,-0.212,-0.215,-0.215,-0.215,-0.2151,0,-0.2138,-0.213,-0.2141,-0.2137,-0.2128,-0.2138,-0.2129,-0.2132,-0.2135,-0.2131,-0.2141,-0.2137,-0.2147,-0.2144,-0.215,-0.2143,-0.2142,-0.2145,-0.2146,-0.2144,-0.2144,-0.2144,-0.2146,-0.215,-0.215,-0.215,-0.215,0,-0.211,-0.2117,-0.2109,-0.2115,-0.2117,-0.211,-0.2115,-0.2111,-0.2116,-0.2111,-0.2111,-0.2118,-0.2115,-0.2123,-0.2121,-0.2125,-0.2114,-0.2118,-0.2114,-0.2115,-0.2106,-0.2107,-0.2072,-0.2069,-0.2101,-0.2101,-0.21,0,-0.2093,-0.2087,-0.2093,-0.2091,-0.2093,-0.209,-0.2089,-0.2098,-0.2097,-0.2099,-0.2095,-0.2093,-0.2092,-0.2088,-0.2093,-0.2092,-0.2096,-0.2084,-0.2095,-0.2094,-0.2096,-0.2097,-0.2096,-0.2081,-0.2081,-0.2081,-0.208,0,-0.2063,-0.2067,-0.2066,-0.2066,-0.2065,-0.2065,-0.2066,-0.2064,-0.2074,-0.2072,-0.2069,-0.2069,-0.2067,-0.2065,-0.2066,-0.2068,-0.2076,-0.2077,-0.2075,-0.2072,-0.2071,-0.2072,-0.2108,-0.2078,-0.2078,-0.2078,-0.2078,-0.2078,-0.2041,-0.2037,-0.204,-0.2038,-0.204,-0.2041,-0.2038,-0.2042,-0.204,-0.204,-0.2046,-0.2042,-0.2045,-0.2046,-0.2047,-0.2045,-0.205,-0.2047,-0.2046,-0.2045,-0.2044,-0.2071,-0.2045,-0.2045,-0.2045,-0.2045,-0.2045,0,-0.2012,-0.2015,-0.2014,-0.2015,-0.2014,-0.2021,-0.2023,-0.2021,-0.2018,-0.202,-0.202,-0.2017,-0.2015,-0.2021,-0.202,-0.2017,-0.2021,-0.2016,-0.2017,-0.2018,-0.2039,-0.2041,-0.2014,-0.2014,-0.2014,-0.2014,-0.2014,-0.2014,-0.1997,-0.1991,-0.1995,-0.199,-0.1993,-0.199,-0.199,-0.1991,-0.1993,-0.199,-0.1989,-0.1992,-0.1996,-0.1995,-0.1994,-0.1996,-0.1995,-0.199,-0.1993,-0.2013,-0.2016,-0.2019,-0.2021,-0.1989,-0.1989,-0.1972,-0.1971,-0.1971]},{"header":{"parameterUnit":"m.s-1","parameterCategory":1,"la1":30.2991,"la2":30.254,"lo1":-89.0895,"lo2":-89.0444,"dy":0.0017,"dx":0.0017,"nx":28,"ny":28,"refTime":"2025-05-31T21:00:00:Z","depth":0,"parameterNumber":3,"parameterNumberName":"V-component_of_WINDS"},"data":[0,0,0,0,0,0,0,0,0,0,0,0,0,0,0,0,0,0,0,0,0,0,0,0,0,0,0,0,0,0,0,0,0,0,0,0,0,0,0,0,0,0,0,0,0,0,0,0,0,0,0,0,0,0,0,0,0,0,1.4923,1.4922,0,1.4845,1.4845,1.4844,1.4764,1.4763,1.4762,1.476,1.4681,1.468,1.4679,0,0,0,0,0,0,0,0,0,0,0,0,0,1.4999,1.4999,1.4923,1.4922,1.4921,1.4846,1.4845,1.4843,1.4764,1.4763,1.4761,1.476,1.4682,1.468,1.4679,0,0,0,0,0,0,0,0,0,0,0,0,0,1.4949,1.4998,1.4923,1.4872,1.4867,1.4846,1.4844,1.4843,1.4764,1.4763,1.4761,1.4759,1.4682,1.468,1.4679,1.4702,0,0,1.4674,1.4673,0,0,0,0,0,0,0,0,1.4952,1.4946,1.4881,1.4876,1.487,1.4813,1.4842,1.4796,1.4765,1.4803,1.476,1.4759,1.4726,1.4721,1.471,1.4698,1.4695,1.4674,1.4673,1.4672,1.4672,0,0,0,0,0,0,0,1.4955,1.4949,1.4892,1.488,1.4873,1.4852,1.4843,1.4833,1.4775,1.48,1.4794,1.4786,1.4723,1.4712,1.4708,1.4693,1.4674,1.4672,1.4671,1.4671,1.4692,1.4694,0,0,0,0,0,0,1.4967,1.4952,1.4895,1.489,1.4907,1.4852,1.4842,1.4833,1.4775,1.4764,1.4787,1.4782,1.4715,1.471,1.4704,1.4724,1.4672,1.467,1.467,1.4691,1.4693,1.4694,0,0,0,0,0,0,1.4969,1.4962,1.4898,1.4919,1.491,1.4853,1.4843,1.4832,1.4821,1.4765,1.4754,1.4787,1.4714,1.4707,1.4702,1.4721,1.467,1.4668,1.4689,1.4691,1.4693,1.4767,0,0,0,0,0,0,1.4971,1.4964,1.4972,1.492,1.4909,1.4898,1.4844,1.4832,1.4818,1.4811,1.4762,1.4752,1.4712,1.4705,1.47,1.4718,1.4667,1.4687,1.469,1.4693,1.4763,1.4772,1.4779,0,0,0,0,0,1.4974,1.4997,1.4973,1.4967,1.4919,1.4899,1.4892,1.4846,1.482,1.4827,1.4791,1.4754,1.472,1.4705,1.4699,1.4716,1.4685,1.4689,1.4692,1.4759,1.477,1.4779,0,0,0,0,0,0,1.5053,1.4989,1.4962,1.4969,1.494,1.4886,1.4894,1.4859,1.4837,1.4831,1.4774,1.4764,1.4765,1.474,1.4725,1.4734,1.4697,1.47,1.475,1.4759,1.4768,1.4773,1.4666,0,0,0,0,0,1.5071,1.5061,1.5006,1.5017,1.5004,1.4952,1.4941,1.4908,1.4875,1.4863,1.4826,1.4796,1.4778,1.4768,1.4748,1.4759,1.4745,1.4768,1.4776,1.4783,1.4785,1.4786,1.4794,1.4706,1.4706,1.4706,0,0,1.5109,1.5073,1.507,1.5032,1.5005,1.4995,1.4942,1.4934,1.4925,1.4861,1.4854,1.4826,1.4789,1.4791,1.479,1.477,1.4807,1.4787,1.4794,1.4792,1.479,1.4798,1.4806,1.4708,1.4708,1.4707,0,0,1.5171,1.5144,1.5148,1.5123,1.5083,1.5048,1.5049,1.4999,1.4978,1.497,1.4921,1.491,1.4881,1.4855,1.4838,1.4888,1.4851,1.4884,1.4926,1.4927,1.4934,1.494,1.4955,1.4962,1.4886,1.4887,1.4887,0,1.5223,1.5205,1.5155,1.5149,1.5133,1.5074,1.5078,1.5055,1.5012,1.5001,1.498,1.494,1.4911,1.4904,1.4916,1.4906,1.4903,1.4888,1.4937,1.4943,1.4947,1.4961,1.4967,1.4891,1.489,1.489,1.4889,0,1.5269,1.5258,1.5266,1.5224,1.5209,1.5208,1.5157,1.5147,1.5115,1.5081,1.5072,1.5034,1.5005,1.5001,1.497,1.499,1.4978,1.4948,1.491,1.4961,1.4972,1.4978,1.4896,1.4895,1.4894,1.4893,0,0,1.5379,1.5308,1.5312,1.5291,1.5242,1.5232,1.5228,1.5198,1.519,1.5162,1.5154,1.513,1.5101,1.5082,1.5047,1.5048,1.5086,1.5017,1.5015,1.5029,1.5102,1.5124,1.5131,1.5062,1.5063,1.5064,1.5104,0,1.5431,1.5419,1.5373,1.5375,1.5362,1.5305,1.5301,1.527,1.5238,1.5222,1.5186,1.5169,1.5133,1.5121,1.512,1.5082,1.51,1.5079,1.5053,1.5053,1.5063,1.5137,1.5161,1.5201,1.5109,1.511,1.511,0,1.549,1.5464,1.5465,1.5413,1.5406,1.5403,1.5371,1.5357,1.532,1.5296,1.5274,1.5234,1.5224,1.519,1.5174,1.516,1.5147,1.5126,1.5127,1.5121,1.5084,1.5132,1.5213,1.5219,1.5118,1.5117,1.5117,0,1.5567,1.5533,1.5527,1.5512,1.5453,1.5451,1.5427,1.5388,1.5372,1.5344,1.5333,1.5305,1.5289,1.5267,1.5219,1.5199,1.5207,1.517,1.5186,1.5187,1.5189,1.5189,1.5268,1.5184,1.5184,1.5184,1.5184,0,1.5629,1.5631,1.5561,1.5558,1.5557,1.5503,1.5504,1.5474,1.5439,1.5427,1.5377,1.5367,1.5307,1.5289,1.5252,1.5243,1.5236,1.5216,1.5205,1.5219,1.5221,1.5208,1.5204,1.5186,1.5185,1.5185,1.5185,0,1.5715,1.5668,1.5658,1.5603,1.5589,1.5591,1.5542,1.5536,1.5501,1.5487,1.548,1.5425,1.5401,1.5352,1.5316,1.5291,1.5289,1.5272,1.5302,1.5295,1.5313,1.5311,1.5384,1.539,1.5305,1.5306,1.5307,0,1.5756,1.5756,1.57,1.5689,1.5666,1.5649,1.5632,1.5579,1.5564,1.5519,1.5518,1.5491,1.5466,1.543,1.5386,1.5357,1.5338,1.5365,1.5333,1.5346,1.5335,1.5335,1.5333,1.5372,1.5373,1.5374,1.5375,0,1.5834,1.581,1.5789,1.5759,1.5741,1.5714,1.5685,1.5679,1.5618,1.5603,1.5579,1.5559,1.5521,1.5493,1.5457,1.543,1.5392,1.5386,1.5387,1.54,1.5416,1.5405,1.5319,1.5384,1.5383,1.5382,1.5382,1.5381,1.5897,1.5893,1.5852,1.5829,1.5802,1.5775,1.5766,1.5729,1.5707,1.5672,1.5642,1.5619,1.5579,1.5526,1.5501,1.5481,1.5463,1.5466,1.5467,1.5468,1.5472,1.5421,1.5475,1.5475,1.5474,1.5474,1.5474,0,1.597,1.594,1.592,1.588,1.5862,1.5828,1.5793,1.578,1.576,1.5726,1.5702,1.5672,1.5645,1.5598,1.5566,1.5559,1.554,1.5552,1.5551,1.5545,1.5492,1.5493,1.5567,1.5567,1.5567,1.5567,1.5567,1.5567,1.6005,1.5996,1.5968,1.5943,1.5913,1.5891,1.5874,1.5848,1.582,1.5789,1.5766,1.5736,1.5695,1.566,1.5632,1.5618,1.5608,1.5625,1.5606,1.5557,1.5549,1.554,1.554,1.5624,1.5624,1.5659,1.566,1.566]}]]